1578351637,2020-01-07 00:00,427.00,-15
1578351698,2020-01-07 00:01,426.00,-14
1578351758,2020-01-07 00:02,427.00,-15
1578351818,2020-01-07 00:03,426.00,-16
1578351879,2020-01-07 00:04,426.00,-16
1578351939,2020-01-07 00:05,425.00,-15
1578351999,2020-01-07 00:06,426.00,-16
1578352060,2020-01-07 00:07,423.00,-18
1578352120,2020-01-07 00:08,425.00,-17
1578352180,2020-01-07 00:09,426.00,-16
1578352240,2020-01-07 00:10,429.00,-15
1578352301,2020-01-07 00:11,428.00,-16
1578352361,2020-01-07 00:12,427.00,-16
1578352421,2020-01-07 00:13,427.00,-16
1578352481,2020-01-07 00:14,427.00,-15
1578352541,2020-01-07 00:15,426.00,-14
1578352602,2020-01-07 00:16,425.00,-15
1578352662,2020-01-07 00:17,426.00,-16
1578352722,2020-01-07 00:18,427.00,-17
1578352783,2020-01-07 00:19,428.00,-16
1578352843,2020-01-07 00:20,426.00,-16
1578352903,2020-01-07 00:21,428.00,-15
1578352963,2020-01-07 00:22,429.00,-16
1578353023,2020-01-07 00:23,427.00,-17
1578353084,2020-01-07 00:24,427.00,-16
1578353144,2020-01-07 00:25,428.00,-16
1578353204,2020-01-07 00:26,427.00,-15
1578353265,2020-01-07 00:27,427.00,-15
1578353325,2020-01-07 00:28,428.00,-17
1578353385,2020-01-07 00:29,426.00,-16
1578353445,2020-01-07 00:30,428.00,-15
1578353506,2020-01-07 00:31,427.00,-17
1578353566,2020-01-07 00:32,428.00,-17
1578353626,2020-01-07 00:33,430.00,-16
1578353687,2020-01-07 00:34,428.00,-15
1578353747,2020-01-07 00:35,427.00,-17
1578353807,2020-01-07 00:36,429.00,-15
1578353867,2020-01-07 00:37,428.00,-17
1578353928,2020-01-07 00:38,428.00,-16
1578353988,2020-01-07 00:39,427.00,-15
1578354048,2020-01-07 00:40,429.00,-15
1578354108,2020-01-07 00:41,430.00,-16
1578354168,2020-01-07 00:42,428.00,-15
1578354228,2020-01-07 00:43,429.00,-15
1578354288,2020-01-07 00:44,428.00,-17
1578354349,2020-01-07 00:45,430.00,-15
1578354409,2020-01-07 00:46,430.00,-17
1578354469,2020-01-07 00:47,429.00,-15
1578354529,2020-01-07 00:48,426.00,-16
1578354589,2020-01-07 00:49,429.00,-15
1578354649,2020-01-07 00:50,430.00,-17
1578354709,2020-01-07 00:51,430.00,-16
1578354769,2020-01-07 00:52,430.00,-15
1578354829,2020-01-07 00:53,427.00,-15
1578354889,2020-01-07 00:54,428.00,-17
1578354950,2020-01-07 00:55,430.00,-16
1578355010,2020-01-07 00:56,430.00,-17
1578355070,2020-01-07 00:57,429.00,-17
1578355130,2020-01-07 00:58,429.00,-15
1578355190,2020-01-07 00:59,428.00,-17
1578355250,2020-01-07 01:00,428.00,-16
1578355310,2020-01-07 01:01,429.00,-17
1578355370,2020-01-07 01:02,430.00,-16
1578355430,2020-01-07 01:03,429.00,-16
1578355491,2020-01-07 01:04,430.00,-17
1578355551,2020-01-07 01:05,431.00,-15
1578355611,2020-01-07 01:06,430.00,-15
1578355671,2020-01-07 01:07,431.00,-17
1578355731,2020-01-07 01:08,431.00,-15
1578355791,2020-01-07 01:09,427.00,-15
1578355851,2020-01-07 01:10,430.00,-17
1578355911,2020-01-07 01:11,430.00,-16
1578355971,2020-01-07 01:12,430.00,-14
1578356031,2020-01-07 01:13,430.00,-16
1578356091,2020-01-07 01:14,430.00,-15
1578356152,2020-01-07 01:15,430.00,-16
1578356212,2020-01-07 01:16,431.00,-15
1578356272,2020-01-07 01:17,429.00,-16
1578356332,2020-01-07 01:18,428.00,-15
1578356392,2020-01-07 01:19,429.00,-16
1578356452,2020-01-07 01:20,431.00,-16
1578356512,2020-01-07 01:21,429.00,-16
1578356572,2020-01-07 01:22,428.00,-16
1578356632,2020-01-07 01:23,431.00,-15
1578356692,2020-01-07 01:24,430.00,-16
1578356753,2020-01-07 01:25,430.00,-16
1578356813,2020-01-07 01:26,431.00,-17
1578356873,2020-01-07 01:27,431.00,-16
1578356933,2020-01-07 01:28,431.00,-15
1578356993,2020-01-07 01:29,431.00,-15
1578357053,2020-01-07 01:30,431.00,-16
1578357113,2020-01-07 01:31,430.00,-17
1578357176,2020-01-07 01:32,430.00,-16
1578357236,2020-01-07 01:33,432.00,-17
1578357296,2020-01-07 01:34,433.00,-16
1578357357,2020-01-07 01:35,431.00,-15
1578357417,2020-01-07 01:36,432.00,-16
1578357477,2020-01-07 01:37,430.00,-16
1578357538,2020-01-07 01:38,433.00,-15
1578357598,2020-01-07 01:39,433.00,-15
1578357658,2020-01-07 01:40,432.00,-16
1578357718,2020-01-07 01:41,429.00,-15
1578357779,2020-01-07 01:42,429.00,-15
1578357839,2020-01-07 01:43,430.00,-15
1578357899,2020-01-07 01:44,433.00,-15
1578357960,2020-01-07 01:46,433.00,-16
1578358020,2020-01-07 01:47,430.00,-16
1578358080,2020-01-07 01:48,432.00,-16
1578358140,2020-01-07 01:49,432.00,-15
1578358201,2020-01-07 01:50,432.00,-16
1578358261,2020-01-07 01:51,433.00,-14
1578358321,2020-01-07 01:52,431.00,-16
1578358382,2020-01-07 01:53,432.00,-16
1578358442,2020-01-07 01:54,430.00,-15
1578358502,2020-01-07 01:55,431.00,-14
1578358563,2020-01-07 01:56,433.00,-16
1578358623,2020-01-07 01:57,430.00,-17
1578358683,2020-01-07 01:58,431.00,-16
1578358743,2020-01-07 01:59,430.00,-17
1578358804,2020-01-07 02:00,432.00,-16
1578358864,2020-01-07 02:01,432.00,-15
1578358924,2020-01-07 02:02,431.00,-17
1578358985,2020-01-07 02:03,431.00,-16
1578359045,2020-01-07 02:04,429.00,-16
1578359105,2020-01-07 02:05,430.00,-15
1578359165,2020-01-07 02:06,431.00,-17
1578359226,2020-01-07 02:07,431.00,-17
1578359286,2020-01-07 02:08,432.00,-14
1578359346,2020-01-07 02:09,432.00,-16
1578359406,2020-01-07 02:10,432.00,-16
1578359467,2020-01-07 02:11,431.00,-17
1578359527,2020-01-07 02:12,431.00,-16
1578359587,2020-01-07 02:13,432.00,-17
1578359648,2020-01-07 02:14,431.00,-16
1578359708,2020-01-07 02:15,431.00,-16
1578359768,2020-01-07 02:16,432.00,-14
1578359828,2020-01-07 02:17,432.00,-17
1578359889,2020-01-07 02:18,432.00,-15
1578359949,2020-01-07 02:19,433.00,-17
1578360009,2020-01-07 02:20,428.00,-17
1578360069,2020-01-07 02:21,430.00,-15
1578360129,2020-01-07 02:22,433.00,-14
1578360190,2020-01-07 02:23,433.00,-15
1578360250,2020-01-07 02:24,433.00,-16
1578360310,2020-01-07 02:25,432.00,-14
1578360370,2020-01-07 02:26,432.00,-15
1578360431,2020-01-07 02:27,433.00,-17
1578360491,2020-01-07 02:28,432.00,-16
1578360551,2020-01-07 02:29,430.00,-16
1578360612,2020-01-07 02:30,433.00,-15
1578360672,2020-01-07 02:31,431.00,-16
1578360732,2020-01-07 02:32,432.00,-16
1578360792,2020-01-07 02:33,431.00,-16
1578360852,2020-01-07 02:34,430.00,-15
1578360913,2020-01-07 02:35,432.00,-15
1578360973,2020-01-07 02:36,431.00,-15
1578361033,2020-01-07 02:37,431.00,-16
1578361093,2020-01-07 02:38,431.00,-14
1578361154,2020-01-07 02:39,432.00,-15
1578361214,2020-01-07 02:40,430.00,-14
1578361274,2020-01-07 02:41,432.00,-15
1578361334,2020-01-07 02:42,433.00,-16
1578361395,2020-01-07 02:43,432.00,-15
1578361455,2020-01-07 02:44,432.00,-16
1578361515,2020-01-07 02:45,431.00,-16
1578361575,2020-01-07 02:46,431.00,-14
1578361636,2020-01-07 02:47,433.00,-17
1578361696,2020-01-07 02:48,431.00,-16
1578361756,2020-01-07 02:49,433.00,-14
1578361816,2020-01-07 02:50,431.00,-14
1578361876,2020-01-07 02:51,433.00,-14
1578361937,2020-01-07 02:52,432.00,-15
1578361997,2020-01-07 02:53,431.00,-15
1578362057,2020-01-07 02:54,434.00,-16
1578362117,2020-01-07 02:55,434.00,-14
1578362177,2020-01-07 02:56,432.00,-16
1578362238,2020-01-07 02:57,432.00,-15
1578362298,2020-01-07 02:58,432.00,-16
1578362358,2020-01-07 02:59,432.00,-16
1578362419,2020-01-07 03:00,432.00,-15
1578362479,2020-01-07 03:01,432.00,-16
1578362539,2020-01-07 03:02,433.00,-15
1578362599,2020-01-07 03:03,432.00,-14
1578362660,2020-01-07 03:04,432.00,-15
1578362720,2020-01-07 03:05,432.00,-15
1578362780,2020-01-07 03:06,432.00,-15
1578362841,2020-01-07 03:07,432.00,-15
1578362901,2020-01-07 03:08,432.00,-15
1578362961,2020-01-07 03:09,433.00,-16
1578363021,2020-01-07 03:10,431.00,-15
1578363082,2020-01-07 03:11,432.00,-16
1578363142,2020-01-07 03:12,432.00,-16
1578363202,2020-01-07 03:13,433.00,-15
1578363262,2020-01-07 03:14,433.00,-16
1578363323,2020-01-07 03:15,433.00,-14
1578363383,2020-01-07 03:16,433.00,-14
1578363443,2020-01-07 03:17,434.00,-16
1578363503,2020-01-07 03:18,433.00,-16
1578363563,2020-01-07 03:19,432.00,-16
1578363624,2020-01-07 03:20,432.00,-16
1578363684,2020-01-07 03:21,434.00,-14
1578363744,2020-01-07 03:22,431.00,-14
1578363805,2020-01-07 03:23,434.00,-15
1578363865,2020-01-07 03:24,434.00,-16
1578363925,2020-01-07 03:25,431.00,-15
1578363985,2020-01-07 03:26,432.00,-15
1578364046,2020-01-07 03:27,433.00,-15
1578364106,2020-01-07 03:28,431.00,-17
1578364166,2020-01-07 03:29,431.00,-15
1578364227,2020-01-07 03:30,433.00,-16
1578364287,2020-01-07 03:31,434.00,-15
1578364347,2020-01-07 03:32,432.00,-15
1578364407,2020-01-07 03:33,432.00,-16
1578364468,2020-01-07 03:34,433.00,-16
1578364528,2020-01-07 03:35,433.00,-17
1578364588,2020-01-07 03:36,431.00,-15
1578364649,2020-01-07 03:37,431.00,-14
1578364709,2020-01-07 03:38,433.00,-16
1578364769,2020-01-07 03:39,433.00,-14
1578364829,2020-01-07 03:40,434.00,-15
1578364890,2020-01-07 03:41,431.00,-16
1578364950,2020-01-07 03:42,433.00,-16
1578365010,2020-01-07 03:43,433.00,-16
1578365070,2020-01-07 03:44,433.00,-14
1578365131,2020-01-07 03:45,434.00,-15
1578365191,2020-01-07 03:46,433.00,-16
1578365251,2020-01-07 03:47,433.00,-14
1578365312,2020-01-07 03:48,433.00,-16
1578365372,2020-01-07 03:49,432.00,-14
1578365432,2020-01-07 03:50,432.00,-16
1578365492,2020-01-07 03:51,432.00,-16
1578365553,2020-01-07 03:52,431.00,-16
1578365613,2020-01-07 03:53,433.00,-15
1578365673,2020-01-07 03:54,432.00,-16
1578365733,2020-01-07 03:55,433.00,-15
1578365793,2020-01-07 03:56,432.00,-15
1578365854,2020-01-07 03:57,432.00,-15
1578365914,2020-01-07 03:58,433.00,-16
1578365974,2020-01-07 03:59,432.00,-14
1578366035,2020-01-07 04:00,433.00,-15
1578366095,2020-01-07 04:01,433.00,-15
1578366155,2020-01-07 04:02,433.00,-15
1578366215,2020-01-07 04:03,433.00,-15
1578366276,2020-01-07 04:04,433.00,-15
1578366336,2020-01-07 04:05,432.00,-16
1578366396,2020-01-07 04:06,432.00,-17
1578366457,2020-01-07 04:07,434.00,-15
1578366517,2020-01-07 04:08,435.00,-16
1578366577,2020-01-07 04:09,435.00,-16
1578366637,2020-01-07 04:10,433.00,-15
1578366697,2020-01-07 04:11,432.00,-14
1578366758,2020-01-07 04:12,434.00,-18
1578366818,2020-01-07 04:13,432.00,-16
1578366878,2020-01-07 04:14,433.00,-16
1578366938,2020-01-07 04:15,433.00,-16
1578366999,2020-01-07 04:16,434.00,-15
1578367059,2020-01-07 04:17,432.00,-16
1578367119,2020-01-07 04:18,435.00,-14
1578367179,2020-01-07 04:19,434.00,-16
1578367239,2020-01-07 04:20,433.00,-16
1578367300,2020-01-07 04:21,433.00,-15
1578367360,2020-01-07 04:22,435.00,-16
1578367420,2020-01-07 04:23,433.00,-16
1578367480,2020-01-07 04:24,434.00,-15
1578367541,2020-01-07 04:25,433.00,-16
1578367601,2020-01-07 04:26,434.00,-15
1578367661,2020-01-07 04:27,435.00,-16
1578367721,2020-01-07 04:28,434.00,-16
1578367782,2020-01-07 04:29,434.00,-15
1578367842,2020-01-07 04:30,433.00,-14
1578367902,2020-01-07 04:31,434.00,-14
1578367962,2020-01-07 04:32,436.00,-16
1578368023,2020-01-07 04:33,433.00,-17
1578368083,2020-01-07 04:34,434.00,-16
1578368143,2020-01-07 04:35,435.00,-15
1578368204,2020-01-07 04:36,434.00,-16
1578368264,2020-01-07 04:37,435.00,-16
1578368324,2020-01-07 04:38,435.00,-15
1578368384,2020-01-07 04:39,433.00,-16
1578368445,2020-01-07 04:40,435.00,-16
1578368505,2020-01-07 04:41,435.00,-16
1578368565,2020-01-07 04:42,435.00,-17
1578368626,2020-01-07 04:43,435.00,-16
1578368686,2020-01-07 04:44,436.00,-15
1578368746,2020-01-07 04:45,435.00,-15
1578368806,2020-01-07 04:46,433.00,-16
1578368867,2020-01-07 04:47,434.00,-15
1578368927,2020-01-07 04:48,434.00,-17
1578368987,2020-01-07 04:49,433.00,-17
1578369047,2020-01-07 04:50,437.00,-16
1578369108,2020-01-07 04:51,434.00,-16
1578369168,2020-01-07 04:52,434.00,-16
1578369228,2020-01-07 04:53,435.00,-17
1578369289,2020-01-07 04:54,435.00,-17
1578369349,2020-01-07 04:55,436.00,-16
1578369409,2020-01-07 04:56,436.00,-17
1578369469,2020-01-07 04:57,432.00,-17
1578369529,2020-01-07 04:58,435.00,-15
1578369589,2020-01-07 04:59,437.00,-16
1578369649,2020-01-07 05:00,435.00,-15
1578369709,2020-01-07 05:01,435.00,-16
1578369769,2020-01-07 05:02,436.00,-16
1578369829,2020-01-07 05:03,434.00,-17
1578369889,2020-01-07 05:04,434.00,-14
1578369949,2020-01-07 05:05,437.00,-16
1578370010,2020-01-07 05:06,435.00,-15
1578370070,2020-01-07 05:07,435.00,-17
1578370130,2020-01-07 05:08,437.00,-16
1578370190,2020-01-07 05:09,436.00,-17
1578370250,2020-01-07 05:10,437.00,-15
1578370310,2020-01-07 05:11,435.00,-17
1578370370,2020-01-07 05:12,435.00,-17
1578370430,2020-01-07 05:13,435.00,-17
1578370490,2020-01-07 05:14,436.00,-17
1578370550,2020-01-07 05:15,437.00,-17
1578370610,2020-01-07 05:16,436.00,-16
1578370670,2020-01-07 05:17,437.00,-17
1578370731,2020-01-07 05:18,438.00,-16
1578370791,2020-01-07 05:19,437.00,-17
1578370851,2020-01-07 05:20,436.00,-17
1578370911,2020-01-07 05:21,438.00,-17
1578370971,2020-01-07 05:22,438.00,-16
1578371031,2020-01-07 05:23,436.00,-17
1578371091,2020-01-07 05:24,435.00,-16
1578371151,2020-01-07 05:25,437.00,-17
1578371211,2020-01-07 05:26,437.00,-17
1578371271,2020-01-07 05:27,437.00,-16
1578371332,2020-01-07 05:28,438.00,-16
1578371392,2020-01-07 05:29,438.00,-16
1578371452,2020-01-07 05:30,437.00,-17
1578371512,2020-01-07 05:31,436.00,-16
1578371572,2020-01-07 05:32,438.00,-14
1578371632,2020-01-07 05:33,438.00,-15
1578371692,2020-01-07 05:34,438.00,-17
1578371752,2020-01-07 05:35,439.00,-16
1578371812,2020-01-07 05:36,438.00,-16
1578371872,2020-01-07 05:37,440.00,-15
1578371932,2020-01-07 05:38,439.00,-15
1578371993,2020-01-07 05:39,438.00,-17
1578372053,2020-01-07 05:40,439.00,-16
1578372113,2020-01-07 05:41,440.00,-16
1578372173,2020-01-07 05:42,439.00,-17
1578372233,2020-01-07 05:43,440.00,-17
1578372293,2020-01-07 05:44,440.00,-14
1578372353,2020-01-07 05:45,439.00,-15
1578372413,2020-01-07 05:46,440.00,-15
1578372473,2020-01-07 05:47,439.00,-16
1578372533,2020-01-07 05:48,440.00,-15
1578372593,2020-01-07 05:49,441.00,-17
1578372654,2020-01-07 05:50,440.00,-17
1578372714,2020-01-07 05:51,439.00,-16
1578372774,2020-01-07 05:52,439.00,-17
1578372834,2020-01-07 05:53,439.00,-16
1578372894,2020-01-07 05:54,440.00,-17
1578372954,2020-01-07 05:55,440.00,-17
1578373015,2020-01-07 05:56,440.00,-16
1578373076,2020-01-07 05:57,440.00,-15
1578373136,2020-01-07 05:58,441.00,-15
1578373196,2020-01-07 05:59,440.00,-15
1578373256,2020-01-07 06:00,439.00,-15
1578373317,2020-01-07 06:01,443.00,-16
1578373377,2020-01-07 06:02,440.00,-16
1578373437,2020-01-07 06:03,441.00,-15
1578373498,2020-01-07 06:04,441.00,-16
1578373558,2020-01-07 06:05,442.00,-16
1578373618,2020-01-07 06:06,442.00,-15
1578373679,2020-01-07 06:07,441.00,-17
1578373739,2020-01-07 06:08,441.00,-16
1578373799,2020-01-07 06:09,441.00,-15
1578373860,2020-01-07 06:11,441.00,-17
1578373920,2020-01-07 06:12,444.00,-16
1578373980,2020-01-07 06:13,442.00,-15
1578374040,2020-01-07 06:14,442.00,-16
1578374101,2020-01-07 06:15,445.00,-14
1578374161,2020-01-07 06:16,444.00,-17
1578374221,2020-01-07 06:17,443.00,-15
1578374282,2020-01-07 06:18,443.00,-16
1578374342,2020-01-07 06:19,446.00,-16
1578374402,2020-01-07 06:20,445.00,-16
1578374462,2020-01-07 06:21,442.00,-16
1578374523,2020-01-07 06:22,443.00,-17
1578374583,2020-01-07 06:23,441.00,-17
1578374643,2020-01-07 06:24,445.00,-15
1578374704,2020-01-07 06:25,445.00,-14
1578374764,2020-01-07 06:26,445.00,-16
1578374824,2020-01-07 06:27,445.00,-16
1578374885,2020-01-07 06:28,445.00,-16
1578374945,2020-01-07 06:29,446.00,-16
1578375005,2020-01-07 06:30,445.00,-17
1578375066,2020-01-07 06:31,445.00,-16
1578375126,2020-01-07 06:32,445.00,-16
1578375186,2020-01-07 06:33,446.00,-16
1578375247,2020-01-07 06:34,447.00,-16
1578375307,2020-01-07 06:35,446.00,-16
1578375368,2020-01-07 06:36,446.00,-14
1578375428,2020-01-07 06:37,445.00,-15
1578375488,2020-01-07 06:38,446.00,-15
1578375548,2020-01-07 06:39,445.00,-16
1578375609,2020-01-07 06:40,445.00,-16
1578375669,2020-01-07 06:41,446.00,-16
1578375729,2020-01-07 06:42,445.00,-16
1578375790,2020-01-07 06:43,445.00,-16
1578375850,2020-01-07 06:44,448.00,-15
1578375911,2020-01-07 06:45,447.00,-14
1578376198,2020-01-07 06:49,446.00,-16
1578376258,2020-01-07 06:50,447.00,-16
1578376319,2020-01-07 06:51,447.00,-16
1578376379,2020-01-07 06:52,448.00,-14
1578376439,2020-01-07 06:53,448.00,-14
1578376500,2020-01-07 06:55,449.00,-15
1578376560,2020-01-07 06:56,448.00,-15
1578376621,2020-01-07 06:57,446.00,-14
1578376681,2020-01-07 06:58,449.00,-16
1578376741,2020-01-07 06:59,451.00,-15
1578376802,2020-01-07 07:00,449.00,-16
1578376862,2020-01-07 07:01,448.00,-16
1578376922,2020-01-07 07:02,450.00,-17
1578376983,2020-01-07 07:03,453.00,-15
1578377043,2020-01-07 07:04,453.00,-16
1578377103,2020-01-07 07:05,451.00,-16
1578377164,2020-01-07 07:06,450.00,-16
1578377224,2020-01-07 07:07,453.00,-15
1578377285,2020-01-07 07:08,451.00,-15
1578377345,2020-01-07 07:09,450.00,-16
1578377405,2020-01-07 07:10,452.00,-15
1578377466,2020-01-07 07:11,453.00,-15
1578377526,2020-01-07 07:12,451.00,-15
1578377586,2020-01-07 07:13,451.00,-15
1578377647,2020-01-07 07:14,454.00,-16
1578377707,2020-01-07 07:15,453.00,-16
1578377768,2020-01-07 07:16,453.00,-15
1578377828,2020-01-07 07:17,455.00,-15
1578377888,2020-01-07 07:18,453.00,-15
1578377949,2020-01-07 07:19,454.00,-15
1578378009,2020-01-07 07:20,451.00,-15
1578378069,2020-01-07 07:21,452.00,-15
1578378130,2020-01-07 07:22,453.00,-14
1578378193,2020-01-07 07:23,455.00,-17
1578378253,2020-01-07 07:24,454.00,-16
1578378313,2020-01-07 07:25,456.00,-16
1578378373,2020-01-07 07:26,457.00,-16
1578378433,2020-01-07 07:27,455.00,-17
1578378494,2020-01-07 07:28,456.00,-16
1578378554,2020-01-07 07:29,455.00,-18
1578378614,2020-01-07 07:30,455.00,-15
1578378674,2020-01-07 07:31,456.00,-17
1578378734,2020-01-07 07:32,455.00,-16
1578378794,2020-01-07 07:33,458.00,-16
1578378855,2020-01-07 07:34,455.00,-17
1578378915,2020-01-07 07:35,458.00,-17
1578378975,2020-01-07 07:36,458.00,-16
1578379036,2020-01-07 07:37,459.00,-17
1578379096,2020-01-07 07:38,458.00,-15
1578379157,2020-01-07 07:39,459.00,-16
1578379217,2020-01-07 07:40,459.00,-16
1578379278,2020-01-07 07:41,459.00,-16
1578379338,2020-01-07 07:42,460.00,-17
1578379398,2020-01-07 07:43,460.00,-17
1578379459,2020-01-07 07:44,461.00,-16
1578379519,2020-01-07 07:45,463.00,-17
1578379580,2020-01-07 07:46,462.00,-15
1578379640,2020-01-07 07:47,463.00,-16
1578379700,2020-01-07 07:48,461.00,-16
1578379761,2020-01-07 07:49,463.00,-17
1578379821,2020-01-07 07:50,461.00,-15
1578379882,2020-01-07 07:51,464.00,-17
1578379945,2020-01-07 07:52,463.00,-16
1578380005,2020-01-07 07:53,465.00,-16
1578380065,2020-01-07 07:54,465.00,-16
1578380126,2020-01-07 07:55,465.00,-17
1578380186,2020-01-07 07:56,465.00,-16
1578380247,2020-01-07 07:57,466.00,-16
1578380307,2020-01-07 07:58,466.00,-16
1578380367,2020-01-07 07:59,465.00,-15
1578380428,2020-01-07 08:00,467.00,-16
1578380488,2020-01-07 08:01,467.00,-15
1578380549,2020-01-07 08:02,468.00,-15
1578380609,2020-01-07 08:03,469.00,-16
1578380670,2020-01-07 08:04,467.00,-15
1578380730,2020-01-07 08:05,469.00,-14
1578380790,2020-01-07 08:06,470.00,-16
1578380851,2020-01-07 08:07,469.00,-17
1578380911,2020-01-07 08:08,471.00,-17
1578380972,2020-01-07 08:09,469.00,-16
1578381032,2020-01-07 08:10,471.00,-14
1578381092,2020-01-07 08:11,472.00,-17
1578381153,2020-01-07 08:12,471.00,-15
1578381213,2020-01-07 08:13,474.00,-15
1578381274,2020-01-07 08:14,472.00,-17
1578381334,2020-01-07 08:15,472.00,-15
1578381394,2020-01-07 08:16,472.00,-15
1578381455,2020-01-07 08:17,472.00,-16
1578381515,2020-01-07 08:18,472.00,-16
1578381576,2020-01-07 08:19,474.00,-16
1578381636,2020-01-07 08:20,476.00,-16
1578381697,2020-01-07 08:21,474.00,-16
1578381757,2020-01-07 08:22,474.00,-16
1578381817,2020-01-07 08:23,474.00,-17
1578381878,2020-01-07 08:24,475.00,-14
1578381938,2020-01-07 08:25,476.00,-16
1578381998,2020-01-07 08:26,478.00,-16
1578382059,2020-01-07 08:27,477.00,-16
1578382326,2020-01-07 08:32,477.00,-15
1578382387,2020-01-07 08:33,479.00,-17
1578382447,2020-01-07 08:34,480.00,-17
1578382508,2020-01-07 08:35,480.00,-17
1578382568,2020-01-07 08:36,479.00,-17
1578382775,2020-01-07 08:39,482.00,-16
1578382836,2020-01-07 08:40,483.00,-16
1578382896,2020-01-07 08:41,480.00,-17
1578382957,2020-01-07 08:42,482.00,-16
1578383017,2020-01-07 08:43,481.00,-17
1578383077,2020-01-07 08:44,484.00,-17
1578383138,2020-01-07 08:45,484.00,-17
1578383198,2020-01-07 08:46,484.00,-18
1578383259,2020-01-07 08:47,483.00,-18
1578383319,2020-01-07 08:48,484.00,-15
1578383379,2020-01-07 08:49,484.00,-16
1578383440,2020-01-07 08:50,485.00,-17
1578383500,2020-01-07 08:51,484.00,-14
1578383561,2020-01-07 08:52,485.00,-15
1578383621,2020-01-07 08:53,487.00,-15
1578383681,2020-01-07 08:54,488.00,-16
1578383742,2020-01-07 08:55,487.00,-16
1578383802,2020-01-07 08:56,488.00,-15
1578383863,2020-01-07 08:57,487.00,-16
1578383923,2020-01-07 08:58,490.00,-16
1578383984,2020-01-07 08:59,488.00,-16
1578384044,2020-01-07 09:00,489.00,-15
1578384104,2020-01-07 09:01,491.00,-16
1578384165,2020-01-07 09:02,491.00,-16
1578384225,2020-01-07 09:03,490.00,-16
1578384286,2020-01-07 09:04,495.00,-16
1578384445,2020-01-07 09:07,500.00,-13
1578384505,2020-01-07 09:08,500.00,-17
1578384566,2020-01-07 09:09,509.00,-16
1578384626,2020-01-07 09:10,515.00,-17
1578384687,2020-01-07 09:11,516.00,-17
1578384747,2020-01-07 09:12,526.00,-15
1578384808,2020-01-07 09:13,534.00,-17
1578384868,2020-01-07 09:14,536.00,-14
1578384928,2020-01-07 09:15,544.00,-17
1578384989,2020-01-07 09:16,553.00,-17
1578385049,2020-01-07 09:17,558.00,-16
1578385109,2020-01-07 09:18,562.00,-16
1578385170,2020-01-07 09:19,573.00,-16
1578385230,2020-01-07 09:20,584.00,-17
1578385291,2020-01-07 09:21,595.00,-15
1578385351,2020-01-07 09:22,602.00,-15
1578385412,2020-01-07 09:23,611.00,-16
1578385475,2020-01-07 09:24,621.00,-15
1578385536,2020-01-07 09:25,630.00,-15
1578385596,2020-01-07 09:26,638.00,-16
1578385656,2020-01-07 09:27,652.00,-17
1578385717,2020-01-07 09:28,657.00,-16
1578385777,2020-01-07 09:29,665.00,-17
1578385838,2020-01-07 09:30,673.00,-16
1578385898,2020-01-07 09:31,679.00,-15
1578385958,2020-01-07 09:32,687.00,-15
1578386019,2020-01-07 09:33,692.00,-17
1578386079,2020-01-07 09:34,700.00,-16
1578386140,2020-01-07 09:35,708.00,-16
1578386200,2020-01-07 09:36,712.00,-17
1578386260,2020-01-07 09:37,718.00,-16
1578386321,2020-01-07 09:38,727.00,-16
1578386381,2020-01-07 09:39,734.00,-16
1578386442,2020-01-07 09:40,738.00,-17
1578386502,2020-01-07 09:41,744.00,-17
1578386563,2020-01-07 09:42,744.00,-16
1578386623,2020-01-07 09:43,752.00,-18
1578386683,2020-01-07 09:44,753.00,-16
1578386744,2020-01-07 09:45,759.00,-18
1578386804,2020-01-07 09:46,761.00,-17
1578386864,2020-01-07 09:47,766.00,-17
1578386925,2020-01-07 09:48,771.00,-16
1578386985,2020-01-07 09:49,776.00,-15
1578387046,2020-01-07 09:50,783.00,-16
1578387106,2020-01-07 09:51,789.00,-16
1578387166,2020-01-07 09:52,797.00,-18
1578387227,2020-01-07 09:53,807.00,-17
1578387287,2020-01-07 09:54,813.00,-17
1578387351,2020-01-07 09:55,816.00,-17
1578387411,2020-01-07 09:56,825.00,-15
1578387471,2020-01-07 09:57,833.00,-15
1578387531,2020-01-07 09:58,836.00,-16
1578387591,2020-01-07 09:59,842.00,-16
1578387651,2020-01-07 10:00,851.00,-16
1578387712,2020-01-07 10:01,857.00,-16
1578387772,2020-01-07 10:02,863.00,-17
1578387832,2020-01-07 10:03,867.00,-17
1578387892,2020-01-07 10:04,876.00,-17
1578387952,2020-01-07 10:05,885.00,-15
1578388012,2020-01-07 10:06,889.00,-17
1578388073,2020-01-07 10:07,898.00,-15
1578388133,2020-01-07 10:08,902.00,-16
1578388193,2020-01-07 10:09,909.00,-16
1578388253,2020-01-07 10:10,914.00,-16
1578388313,2020-01-07 10:11,920.00,-16
1578388373,2020-01-07 10:12,928.00,-17
1578388434,2020-01-07 10:13,932.00,-17
1578388494,2020-01-07 10:14,940.00,-14
1578388554,2020-01-07 10:15,945.00,-15
1578388614,2020-01-07 10:16,947.00,-16
1578388675,2020-01-07 10:17,952.00,-16
1578388735,2020-01-07 10:18,956.00,-15
1578388795,2020-01-07 10:19,962.00,-16
1578388856,2020-01-07 10:20,970.00,-14
1578388916,2020-01-07 10:21,972.00,-17
1578388977,2020-01-07 10:22,977.00,-16
1578389038,2020-01-07 10:23,983.00,-16
1578389098,2020-01-07 10:24,986.00,-17
1578389159,2020-01-07 10:25,991.00,-16
1578389219,2020-01-07 10:26,995.00,-15
1578389279,2020-01-07 10:27,999.00,-16
1578389340,2020-01-07 10:29,1002.00,-17